| time (UTC) | temp C | wind direction | speed KPH | gust KPH | rain 1hr cm | rain 24hr cm | rain mn cm | humidity % | barometer mb |
| 20260902202740 | 15 | 202 | 0.0 | 0.0 | 0.00 | 0.00 | 0.00 | 85 | 1019.9 |
| 20260902202240 | 15 | 184 | 0.0 | 0.0 | 0.00 | 0.00 | 0.00 | 85 | 1019.7 |
| 20260902201740 | 15 | 201 | 0.0 | 0.0 | 0.00 | 0.00 | 0.00 | 85 | 1019.9 |
| 20260902201239 | 15 | 200 | 0.0 | 0.0 | 0.00 | 0.00 | 0.00 | 85 | 1020.0 |
| 20260902200739 | 15 | 188 | 0.0 | 0.0 | 0.00 | 0.00 | 0.00 | 85 | 1019.8 |
| 20260902200239 | 15 | 204 | 0.0 | 0.0 | 0.00 | 0.00 | 0.00 | 85 | 1019.9 |
| 20260902195740 | 15 | 189 | 0.0 | 0.0 | 0.00 | 0.00 | 0.00 | 85 | 1019.9 |
| 20260902195239 | 15 | 203 | 0.0 | 0.0 | 0.00 | 0.00 | 0.00 | 84 | 1020.1 |
| 20260902194739 | 15 | 212 | 0.0 | 0.0 | 0.00 | 0.00 | 0.00 | 84 | 1019.9 |
| 20260902194240 | 15 | 198 | 0.0 | 0.0 | 0.00 | 0.00 | 0.00 | 84 | 1020.0 |
| 20260902193740 | 15 | 192 | 0.0 | 0.0 | 0.00 | 0.00 | 0.00 | 84 | 1020.0 |
| 20260902193240 | 15 | 192 | 0.0 | 0.0 | 0.00 | 0.00 | 0.00 | 84 | 1020.0 |
| 20260902192740 | 15 | 203 | 0.0 | 0.0 | 0.00 | 0.00 | 0.00 | 84 | 1020.0 |
| 20260902192240 | 15 | 198 | 0.0 | 0.0 | 0.00 | 0.00 | 0.00 | 84 | 1020.0 |
| 20260902191740 | 15 | 198 | 0.0 | 0.0 | 0.00 | 0.00 | 0.00 | 84 | 1020.0 |
| 20260902191240 | 15 | 204 | 0.0 | 0.0 | 0.00 | 0.00 | 0.00 | 83 | 1020.1 |
| 20260902190740 | 15 | 194 | 0.0 | 0.0 | 0.00 | 0.00 | 0.00 | 83 | 1020.1 |
| 20260902190239 | 16 | 190 | 0.0 | 0.0 | 0.00 | 0.00 | 0.00 | 83 | 1020.0 |
| 20260902185739 | 16 | 204 | 0.0 | 0.0 | 0.00 | 0.00 | 0.00 | 83 | 1020.0 |
| 20260902185239 | 16 | 229 | 0.0 | 0.0 | 0.00 | 0.00 | 0.00 | 82 | 1019.9 |
| 20260902184739 | 16 | 253 | 0.0 | 0.0 | 0.00 | 0.00 | 0.00 | 82 | 1020.1 |
| 20260902184239 | 16 | 258 | 0.0 | 0.0 | 0.00 | 0.00 | 0.00 | 82 | 1020.1 |
| 20260902183738 | 16 | 287 | 0.0 | 0.0 | 0.00 | 0.00 | 0.00 | 82 | 1020.0 |
| 20260902183238 | 16 | 292 | 0.0 | 0.0 | 0.00 | 0.00 | 0.00 | 81 | 1020.0 |
| 20260902182737 | 16 | 290 | 0.0 | 0.0 | 0.00 | 0.00 | 0.00 | 81 | 1019.8 |
| 20260902182237 | 16 | 291 | 0.0 | 0.0 | 0.00 | 0.00 | 0.00 | 81 | 1019.8 |
| 20260902181738 | 16 | 291 | 0.0 | 0.0 | 0.00 | 0.00 | 0.00 | 80 | 1019.9 |
| 20260902181238 | 16 | 291 | 0.0 | 0.0 | 0.00 | 0.00 | 0.00 | 80 | 1019.9 |
| 20260902180737 | 16 | 281 | 0.0 | 0.0 | 0.00 | 0.00 | 0.00 | 80 | 1019.8 |
| 20260902180238 | 17 | 277 | 0.0 | 0.0 | 0.00 | 0.00 | 0.00 | 80 | 1019.9 |
| 20260902175738 | 17 | 276 | 0.0 | 0.0 | 0.00 | 0.00 | 0.00 | 79 | 1019.7 |
| 20260902175238 | 17 | 281 | 0.0 | 0.0 | 0.00 | 0.00 | 0.00 | 79 | 1019.7 |
| 20260902174738 | 17 | 281 | 0.0 | 0.0 | 0.00 | 0.00 | 0.00 | 78 | 1019.6 |
| 20260902174238 | 17 | 265 | 0.0 | 0.0 | 0.00 | 0.00 | 0.00 | 78 | 1019.6 |
| 20260902173738 | 17 | 258 | 0.0 | 0.0 | 0.00 | 0.00 | 0.00 | 77 | 1019.7 |
| 20260902173238 | 17 | 256 | 0.0 | 0.0 | 0.00 | 0.00 | 0.00 | 77 | 1019.6 |
| 20260902172738 | 17 | 265 | 0.0 | 0.0 | 0.00 | 0.00 | 0.00 | 77 | 1019.5 |
| 20260902172238 | 17 | 276 | 0.0 | 0.0 | 0.00 | 0.00 | 0.00 | 76 | 1019.5 |
| 20260902171738 | 18 | 307 | 0.0 | 0.0 | 0.00 | 0.00 | 0.00 | 75 | 1019.5 |
| 20260902171238 | 18 | 304 | 0.0 | 0.0 | 0.00 | 0.00 | 0.00 | 75 | 1019.5 |
| 20260902170738 | 18 | 331 | 0.0 | 0.0 | 0.00 | 0.00 | 0.00 | 74 | 1019.4 |
| 20260902170238 | 18 | 283 | 0.0 | 0.0 | 0.00 | 0.00 | 0.00 | 74 | 1019.5 |
| 20260902165738 | 18 | 355 | 0.0 | 0.0 | 0.00 | 0.00 | 0.00 | 73 | 1019.6 |
| 20260902165238 | 18 | 334 | 0.0 | 0.0 | 0.00 | 0.00 | 0.00 | 72 | 1019.3 |
| 20260902164738 | 18 | 302 | 0.0 | 0.0 | 0.00 | 0.00 | 0.00 | 72 | 1019.6 |
| 20260902164238 | 19 | 320 | 0.0 | 0.0 | 0.00 | 0.00 | 0.00 | 71 | 1019.5 |
| 20260902163738 | 19 | 277 | 0.0 | 0.0 | 0.00 | 0.00 | 0.00 | 70 | 1019.4 |
| 20260902163238 | 19 | 287 | 0.0 | 4.8 | 0.00 | 0.00 | 0.00 | 70 | 1019.3 |
| 20260902162543 | 19 | 286 | 0.0 | 0.0 | 0.00 | 0.00 | 0.00 | 69 | 1019.2 |
| 20260902162043 | 20 | 275 | 1.6 | 3.2 | 0.00 | 0.00 | 0.00 | 68 | 1019.4 |
| 20260902161543 | 20 | 268 | 0.0 | 0.0 | 0.00 | 0.00 | 0.00 | 67 | 1019.3 |
| 20260902161043 | 20 | 312 | 0.0 | 1.6 | 0.00 | 0.00 | 0.00 | 66 | 1019.3 |
| 20260902160543 | 20 | 291 | 1.6 | 9.7 | 0.00 | 0.00 | 0.00 | 66 | 1019.4 |
| 20260902160043 | 20 | 254 | 6.4 | 9.7 | 0.00 | 0.00 | 0.00 | 65 | 1019.3 |
| 20260902155543 | 20 | 275 | 3.2 | 4.8 | 0.00 | 0.00 | 0.00 | 64 | 1019.3 |
| 20260902155043 | 21 | 291 | 0.0 | 11.3 | 0.00 | 0.00 | 0.00 | 64 | 1019.3 |
| 20260902154543 | 21 | 281 | 3.2 | 9.7 | 0.00 | 0.00 | 0.00 | 63 | 1019.2 |
| 20260902154043 | 21 | 266 | 12.9 | 16.1 | 0.00 | 0.00 | 0.00 | 63 | 1019.2 |
| 20260902153543 | 21 | 50 | 3.2 | 12.9 | 0.00 | 0.00 | 0.00 | 62 | 1019.4 |
| 20260902153043 | 21 | 281 | 8.0 | 12.9 | 0.00 | 0.00 | 0.00 | 63 | 1019.4 |
| 20260902152543 | 21 | 280 | 8.0 | 14.5 | 0.00 | 0.00 | 0.00 | 62 | 1019.5 |
| 20260902152043 | 21 | 276 | 6.4 | 11.3 | 0.00 | 0.00 | 0.00 | 62 | 1019.5 |
| 20260902151543 | 21 | 261 | 6.4 | 14.5 | 0.00 | 0.00 | 0.00 | 62 | 1019.4 |
| 20260902151043 | 21 | 228 | 6.4 | 11.3 | 0.00 | 0.00 | 0.00 | 61 | 1019.5 |
| 20260902150543 | 21 | 280 | 8.0 | 12.9 | 0.00 | 0.00 | 0.00 | 61 | 1019.4 |
| 20260902150043 | 21 | 268 | 9.7 | 17.7 | 0.00 | 0.00 | 0.00 | 61 | 1019.4 |
| 20260902145543 | 21 | 282 | 9.7 | 24.1 | 0.00 | 0.00 | 0.00 | 61 | 1019.4 |
| 20260902145043 | 21 | 306 | 6.4 | 6.4 | 0.00 | 0.00 | 0.00 | 61 | 1019.3 |
| 20260902144542 | 21 | 288 | 6.4 | 11.3 | 0.00 | 0.00 | 0.00 | 60 | 1019.7 |
| 20260902144043 | 22 | 356 | 6.4 | 17.7 | 0.00 | 0.00 | 0.00 | 60 | 1019.7 |
| 20260902143543 | 22 | 273 | 11.3 | 17.7 | 0.00 | 0.00 | 0.00 | 60 | 1019.5 |
| 20260902143043 | 22 | 294 | 12.9 | 24.1 | 0.00 | 0.00 | 0.00 | 60 | 1019.7 |
| 20260902142543 | 22 | 277 | 6.4 | 16.1 | 0.00 | 0.00 | 0.00 | 60 | 1019.7 |
| 20260902142043 | 22 | 290 | 9.7 | 17.7 | 0.00 | 0.00 | 0.00 | 60 | 1019.7 |
| 20260902141543 | 22 | 350 | 6.4 | 16.1 | 0.00 | 0.00 | 0.00 | 60 | 1019.8 |
| 20260902141043 | 22 | 286 | 16.1 | 24.1 | 0.00 | 0.00 | 0.00 | 60 | 1019.6 |
| 20260902140543 | 22 | 51 | 11.3 | 17.7 | 0.00 | 0.00 | 0.00 | 60 | 1019.8 |
| 20260902140043 | 22 | 283 | 9.7 | 17.7 | 0.00 | 0.00 | 0.00 | 60 | 1019.7 |
| 20260902135543 | 22 | 252 | 14.5 | 22.5 | 0.00 | 0.00 | 0.00 | 60 | 1019.8 |
| 20260902135043 | 22 | 270 | 14.5 | 20.9 | 0.00 | 0.00 | 0.00 | 60 | 1019.7 |
| 20260902134543 | 22 | 256 | 8.0 | 11.3 | 0.00 | 0.00 | 0.00 | 60 | 1019.7 |
| 20260902134043 | 22 | 243 | 9.7 | 20.9 | 0.00 | 0.00 | 0.00 | 61 | 1019.8 |
| 20260902133543 | 22 | 272 | 16.1 | 24.1 | 0.00 | 0.00 | 0.00 | 61 | 1019.8 |
| 20260902133043 | 22 | 242 | 11.3 | 22.5 | 0.00 | 0.00 | 0.00 | 61 | 1019.7 |
| 20260902132543 | 22 | 262 | 12.9 | 20.9 | 0.00 | 0.00 | 0.00 | 62 | 1019.6 |
| 20260902132043 | 21 | 286 | 4.8 | 12.9 | 0.00 | 0.00 | 0.00 | 62 | 1019.8 |
| 20260902131543 | 21 | 280 | 4.8 | 11.3 | 0.00 | 0.00 | 0.00 | 62 | 1019.8 |
| 20260902131043 | 21 | 259 | 8.0 | 16.1 | 0.00 | 0.00 | 0.00 | 62 | 1019.8 |
| 20260902130543 | 21 | 291 | 11.3 | 14.5 | 0.00 | 0.00 | 0.00 | 62 | 1019.9 |
| 20260902130043 | 22 | 301 | 11.3 | 17.7 | 0.00 | 0.00 | 0.00 | 62 | 1019.9 |
| 20260902125543 | 22 | 243 | 11.3 | 17.7 | 0.00 | 0.00 | 0.00 | 62 | 1019.8 |
| 20260902125043 | 22 | 271 | 9.7 | 12.9 | 0.00 | 0.00 | 0.00 | 62 | 1019.6 |
| 20260902124543 | 21 | 278 | 12.9 | 17.7 | 0.00 | 0.00 | 0.00 | 62 | 1019.9 |
| 20260902124043 | 22 | 310 | 9.7 | 16.1 | 0.00 | 0.00 | 0.00 | 62 | 1019.7 |
| 20260902123543 | 22 | 269 | 14.5 | 17.7 | 0.00 | 0.00 | 0.00 | 61 | 1020.0 |
| 20260902123043 | 22 | 251 | 4.8 | 14.5 | 0.00 | 0.00 | 0.00 | 61 | 1019.8 |
| 20260902122543 | 22 | 282 | 16.1 | 24.1 | 0.00 | 0.00 | 0.00 | 61 | 1019.8 |
| 20260902122042 | 22 | 261 | 6.4 | 22.5 | 0.00 | 0.00 | 0.00 | 62 | 1019.9 |
| 20260902121543 | 22 | 253 | 6.4 | 22.5 | 0.00 | 0.00 | 0.00 | 61 | 1019.9 |
| 20260902121043 | 22 | 288 | 11.3 | 24.1 | 0.00 | 0.00 | 0.00 | 61 | 1020.0 |
| 20260902120543 | 22 | 299 | 8.0 | 17.7 | 0.00 | 0.00 | 0.00 | 61 | 1019.9 |
| 20260902120043 | 22 | 287 | 3.2 | 14.5 | 0.00 | 0.00 | 0.00 | 62 | 1019.9 |
| 20260902115543 | 22 | 244 | 4.8 | 14.5 | 0.00 | 0.00 | 0.00 | 62 | 1019.8 |
| 20260902115043 | 22 | 288 | 6.4 | 9.7 | 0.00 | 0.00 | 0.00 | 62 | 1020.0 |
| 20260902114543 | 22 | 318 | 8.0 | 20.9 | 0.00 | 0.00 | 0.00 | 62 | 1019.8 |
| 20260902114043 | 22 | 189 | 1.6 | 11.3 | 0.00 | 0.00 | 0.00 | 64 | 1020.2 |
| 20260902113543 | 22 | 251 | 6.4 | 11.3 | 0.00 | 0.00 | 0.00 | 65 | 1020.1 |
| 20260902113043 | 21 | 260 | 6.4 | 16.1 | 0.00 | 0.00 | 0.00 | 66 | 1020.0 |
| 20260902112543 | 21 | 286 | 8.0 | 11.3 | 0.00 | 0.00 | 0.00 | 67 | 1020.1 |
| 20260902112043 | 21 | 274 | 9.7 | 12.9 | 0.00 | 0.00 | 0.00 | 67 | 1020.2 |
| 20260902111543 | 21 | 259 | 4.8 | 12.9 | 0.00 | 0.00 | 0.00 | 66 | 1020.3 |
| 20260902111043 | 21 | 290 | 8.0 | 11.3 | 0.00 | 0.00 | 0.00 | 66 | 1020.3 |
| 20260902110543 | 21 | 269 | 6.4 | 16.1 | 0.00 | 0.00 | 0.00 | 66 | 1020.3 |
| 20260902110043 | 21 | 300 | 6.4 | 14.5 | 0.00 | 0.00 | 0.00 | 66 | 1020.2 |
| 20260902105543 | 21 | 265 | 6.4 | 11.3 | 0.00 | 0.00 | 0.00 | 66 | 1020.4 |
| 20260902105043 | 21 | 283 | 8.0 | 11.3 | 0.00 | 0.00 | 0.00 | 65 | 1020.3 |
| 20260902104543 | 21 | 250 | 6.4 | 14.5 | 0.00 | 0.00 | 0.00 | 65 | 1020.4 |
| 20260902104043 | 22 | 299 | 6.4 | 9.7 | 0.00 | 0.00 | 0.00 | 65 | 1020.2 |
| 20260902103543 | 22 | 286 | 8.0 | 11.3 | 0.00 | 0.00 | 0.00 | 66 | 1020.4 |
| 20260902103043 | 22 | 302 | 4.8 | 14.5 | 0.00 | 0.00 | 0.00 | 66 | 1020.4 |
| 20260902102543 | 22 | 277 | 3.2 | 4.8 | 0.00 | 0.00 | 0.00 | 67 | 1020.5 |
| 20260902102043 | 22 | 282 | 4.8 | 12.9 | 0.00 | 0.00 | 0.00 | 66 | 1020.5 |
| 20260902101543 | 22 | 279 | 8.0 | 14.5 | 0.00 | 0.00 | 0.00 | 65 | 1020.4 |
| 20260902101043 | 22 | 290 | 8.0 | 14.5 | 0.00 | 0.00 | 0.00 | 66 | 1020.5 |
| 20260902100543 | 22 | 312 | 9.7 | 12.9 | 0.00 | 0.00 | 0.00 | 67 | 1020.5 |
| 20260902100043 | 22 | 260 | 9.7 | 16.1 | 0.00 | 0.00 | 0.00 | 67 | 1020.5 |
| 20260902095543 | 22 | 286 | 9.7 | 12.9 | 0.00 | 0.00 | 0.00 | 67 | 1020.5 |
| 20260902095043 | 21 | 288 | 14.5 | 17.7 | 0.00 | 0.00 | 0.00 | 67 | 1020.6 |
| 20260902094543 | 21 | 274 | 11.3 | 16.1 | 0.00 | 0.00 | 0.00 | 68 | 1020.4 |
| 20260902094043 | 21 | 264 | 9.7 | 17.7 | 0.00 | 0.00 | 0.00 | 68 | 1020.4 |
| 20260902093543 | 21 | 280 | 6.4 | 14.5 | 0.00 | 0.00 | 0.00 | 67 | 1020.7 |
| 20260902093043 | 22 | 240 | 11.3 | 12.9 | 0.00 | 0.00 | 0.00 | 68 | 1020.5 |
| 20260902092543 | 22 | 273 | 6.4 | 11.3 | 0.00 | 0.00 | 0.00 | 68 | 1020.5 |
| 20260902092043 | 22 | 264 | 11.3 | 14.5 | 0.00 | 0.00 | 0.00 | 70 | 1020.4 |
| 20260902091543 | 22 | 350 | 8.0 | 14.5 | 0.00 | 0.00 | 0.00 | 71 | 1020.4 |
| 20260902091043 | 21 | 281 | 4.8 | 9.7 | 0.00 | 0.00 | 0.00 | 71 | 1020.3 |
| 20260902090543 | 21 | 269 | 11.3 | 16.1 | 0.00 | 0.00 | 0.00 | 72 | 1020.4 |
| 20260902090043 | 21 | 304 | 3.2 | 12.9 | 0.00 | 0.00 | 0.00 | 73 | 1020.4 |
| 20260902085543 | 21 | 312 | 6.4 | 14.5 | 0.00 | 0.00 | 0.00 | 73 | 1020.4 |
| 20260902085043 | 21 | 278 | 3.2 | 11.3 | 0.00 | 0.00 | 0.00 | 74 | 1020.4 |
| 20260902084543 | 20 | 261 | 3.2 | 11.3 | 0.00 | 0.00 | 0.00 | 75 | 1020.5 |
| 20260902084043 | 20 | 289 | 0.0 | 4.8 | 0.00 | 0.00 | 0.00 | 75 | 1020.5 |
| 20260902083543 | 20 | 288 | 3.2 | 4.8 | 0.00 | 0.00 | 0.00 | 75 | 1020.6 |
| 20260902083043 | 20 | 269 | 3.2 | 11.3 | 0.00 | 0.00 | 0.00 | 75 | 1020.5 |
| 20260902082542 | 20 | 287 | 9.7 | 11.3 | 0.00 | 0.00 | 0.00 | 76 | 1020.5 |
| 20260902082043 | 20 | 284 | 4.8 | 9.7 | 0.00 | 0.00 | 0.00 | 76 | 1020.4 |
| 20260902081543 | 20 | 274 | 9.7 | 11.3 | 0.00 | 0.00 | 0.00 | 77 | 1020.4 |
| 20260902081043 | 20 | 200 | 3.2 | 4.8 | 0.00 | 0.00 | 0.00 | 78 | 1020.3 |
| 20260902080543 | 19 | 261 | 0.0 | 4.8 | 0.00 | 0.00 | 0.00 | 79 | 1020.5 |
| 20260902080042 | 19 | 230 | 1.6 | 3.2 | 0.00 | 0.00 | 0.00 | 79 | 1020.3 |
| 20260902075543 | 18 | 262 | 3.2 | 4.8 | 0.00 | 0.00 | 0.00 | 79 | 1020.3 |
| 20260902075043 | 18 | 255 | 6.4 | 9.7 | 0.00 | 0.00 | 0.00 | 79 | 1020.3 |
| 20260902074543 | 18 | 273 | 6.4 | 12.9 | 0.00 | 0.00 | 0.00 | 79 | 1020.2 |
| 20260902074043 | 18 | 274 | 6.4 | 14.5 | 0.00 | 0.00 | 0.00 | 80 | 1020.2 |
| 20260902073543 | 18 | 273 | 3.2 | 9.7 | 0.00 | 0.00 | 0.00 | 80 | 1020.4 |
| 20260902073043 | 18 | 306 | 3.2 | 11.3 | 0.00 | 0.00 | 0.00 | 80 | 1020.2 |
| 20260902072543 | 18 | 312 | 6.4 | 12.9 | 0.00 | 0.00 | 0.00 | 81 | 1020.2 |
| 20260902072043 | 18 | 281 | 12.9 | 14.5 | 0.00 | 0.00 | 0.00 | 81 | 1020.1 |
| 20260902071543 | 18 | 263 | 6.4 | 11.3 | 0.00 | 0.00 | 0.00 | 82 | 1020.2 |
| 20260902071043 | 18 | 302 | 1.6 | 3.2 | 0.00 | 0.00 | 0.00 | 83 | 1020.1 |
| 20260902070542 | 17 | 288 | 4.8 | 9.7 | 0.00 | 0.00 | 0.00 | 83 | 1020.2 |
| 20260902070043 | 17 | 196 | 1.6 | 11.3 | 0.00 | 0.00 | 0.00 | 83 | 1020.0 |
| 20260902065542 | 17 | 249 | 1.6 | 11.3 | 0.00 | 0.00 | 0.00 | 83 | 1020.1 |
| 20260902065043 | 17 | 282 | 4.8 | 6.4 | 0.00 | 0.00 | 0.00 | 83 | 1020.1 |
| 20260902064543 | 17 | 280 | 6.4 | 17.7 | 0.00 | 0.00 | 0.00 | 83 | 1019.8 |
| 20260902064043 | 17 | 301 | 4.8 | 11.3 | 0.00 | 0.00 | 0.00 | 84 | 1020.1 |
| 20260902063543 | 17 | 280 | 6.4 | 9.7 | 0.00 | 0.00 | 0.00 | 84 | 1020.0 |
| 20260902063043 | 17 | 272 | 3.2 | 6.4 | 0.00 | 0.00 | 0.00 | 84 | 1019.8 |
| 20260902062543 | 17 | 199 | 1.6 | 6.4 | 0.00 | 0.00 | 0.00 | 84 | 1020.0 |
| 20260902062043 | 17 | 260 | 6.4 | 12.9 | 0.00 | 0.00 | 0.00 | 85 | 1019.8 |
| 20260902061543 | 16 | 206 | 1.6 | 9.7 | 0.00 | 0.00 | 0.00 | 85 | 1019.9 |
| 20260902061043 | 16 | 308 | 3.2 | 16.1 | 0.00 | 0.00 | 0.00 | 85 | 1019.8 |
| 20260902060543 | 16 | 283 | 9.7 | 12.9 | 0.00 | 0.00 | 0.00 | 85 | 1019.7 |
| 20260902060043 | 16 | 246 | 1.6 | 9.7 | 0.00 | 0.00 | 0.00 | 86 | 1020.1 |
| 20260902055543 | 16 | 279 | 1.6 | 6.4 | 0.00 | 0.00 | 0.00 | 86 | 1019.8 |
| 20260902055043 | 16 | 273 | 1.6 | 9.7 | 0.00 | 0.00 | 0.00 | 86 | 1019.9 |
| 20260902054543 | 16 | 260 | 1.6 | 9.7 | 0.00 | 0.00 | 0.00 | 86 | 1019.8 |
| 20260902054043 | 16 | 205 | 1.6 | 4.8 | 0.00 | 0.00 | 0.00 | 86 | 1019.9 |
| 20260902053543 | 16 | 232 | 1.6 | 4.8 | 0.00 | 0.00 | 0.00 | 86 | 1019.7 |
| 20260902053043 | 16 | 235 | 3.2 | 6.4 | 0.00 | 0.00 | 0.00 | 86 | 1019.6 |
| 20260902052542 | 16 | 293 | 4.8 | 6.4 | 0.00 | 0.00 | 0.00 | 86 | 1019.5 |
| 20260902052043 | 15 | 184 | 1.6 | 4.8 | 0.00 | 0.00 | 0.00 | 86 | 1019.7 |
| 20260902051543 | 15 | 241 | 1.6 | 3.2 | 0.00 | 0.00 | 0.00 | 86 | 1019.5 |
| 20260902051042 | 16 | 251 | 1.6 | 1.6 | 0.00 | 0.00 | 0.00 | 87 | 1019.5 |
| 20260902050543 | 15 | 235 | 0.0 | 4.8 | 0.00 | 0.00 | 0.00 | 89 | 1019.5 |
| 20260902050043 | 15 | 260 | 0.0 | 1.6 | 0.00 | 0.00 | 0.00 | 90 | 1019.4 |
| 20260902045543 | 15 | 182 | 0.0 | 3.2 | 0.00 | 0.00 | 0.00 | 90 | 1019.3 |
| 20260902045043 | 14 | 172 | 0.0 | 0.0 | 0.00 | 0.00 | 0.00 | 89 | 1019.4 |
| 20260902044543 | 14 | 265 | 0.0 | 0.0 | 0.00 | 0.00 | 0.00 | 89 | 1019.4 |
| 20260902044043 | 14 | 207 | 0.0 | 0.0 | 0.00 | 0.00 | 0.00 | 89 | 1019.2 |
| 20260902043543 | 14 | 184 | 0.0 | 0.0 | 0.00 | 0.00 | 0.00 | 89 | 1019.4 |
| 20260902043043 | 14 | 221 | 0.0 | 3.2 | 0.00 | 0.00 | 0.00 | 89 | 1019.4 |
| 20260902042543 | 14 | 227 | 0.0 | 1.6 | 0.00 | 0.00 | 0.00 | 89 | 1019.3 |
| 20260902042043 | 14 | 239 | 0.0 | 4.8 | 0.00 | 0.00 | 0.00 | 89 | 1019.2 |
| 20260902041543 | 14 | 239 | 0.0 | 0.0 | 0.00 | 0.00 | 0.00 | 89 | 1019.1 |
| 20260902041043 | 14 | 245 | 0.0 | 0.0 | 0.00 | 0.00 | 0.00 | 88 | 1019.1 |
| 20260902040543 | 14 | 179 | 0.0 | 1.6 | 0.00 | 0.00 | 0.00 | 88 | 1019.2 |
| 20260902040042 | 14 | 217 | 0.0 | 1.6 | 0.00 | 0.00 | 0.00 | 88 | 1019.2 |
| 20260902035543 | 14 | 215 | 0.0 | 1.6 | 0.00 | 0.00 | 0.00 | 88 | 1019.1 |
| 20260902035042 | 14 | 218 | 0.0 | 6.4 | 0.00 | 0.00 | 0.00 | 88 | 1019.2 |
| 20260902034543 | 14 | 231 | 1.6 | 3.2 | 0.00 | 0.00 | 0.00 | 88 | 1019.1 |
| 20260902034043 | 14 | 216 | 0.0 | 0.0 | 0.00 | 0.00 | 0.00 | 88 | 1019.0 |
| 20260902033543 | 14 | 221 | 0.0 | 0.0 | 0.00 | 0.00 | 0.00 | 88 | 1019.0 |
| 20260902033043 | 14 | 247 | 0.0 | 0.0 | 0.00 | 0.00 | 0.00 | 88 | 1019.0 |
| 20260902032543 | 15 | 225 | 0.0 | 0.0 | 0.00 | 0.00 | 0.00 | 87 | 1018.9 |
| 20260902032043 | 15 | 211 | 0.0 | 0.0 | 0.00 | 0.00 | 0.00 | 87 | 1019.2 |
| 20260902031543 | 15 | 192 | 0.0 | 0.0 | 0.00 | 0.00 | 0.00 | 87 | 1019.0 |
| 20260902031043 | 15 | 225 | 0.0 | 0.0 | 0.00 | 0.00 | 0.00 | 87 | 1019.1 |
| 20260902030543 | 15 | 241 | 0.0 | 1.6 | 0.00 | 0.00 | 0.00 | 87 | 1019.2 |
| 20260902030042 | 15 | 291 | 0.0 | 1.6 | 0.00 | 0.00 | 0.00 | 87 | 1019.1 |
| 20260902025543 | 15 | 264 | 0.0 | 4.8 | 0.00 | 0.00 | 0.00 | 87 | 1019.0 |
| 20260902025043 | 15 | 90 | 0.0 | 1.6 | 0.00 | 0.00 | 0.00 | 87 | 1019.1 |
| 20260902024543 | 15 | 291 | 1.6 | 1.6 | 0.00 | 0.00 | 0.00 | 88 | 1018.9 |
| 20260902024043 | 15 | 215 | 0.0 | 1.6 | 0.00 | 0.00 | 0.00 | 88 | 1019.0 |
| 20260902023542 | 15 | 183 | 3.2 | 3.2 | 0.00 | 0.00 | 0.00 | 88 | 1019.1 |
| 20260902023043 | 15 | 206 | 0.0 | 1.6 | 0.00 | 0.00 | 0.00 | 88 | 1019.1 |
| 20260902022543 | 15 | 229 | 0.0 | 1.6 | 0.00 | 0.00 | 0.00 | 88 | 1019.2 |
| 20260902022043 | 15 | 284 | 1.6 | 4.8 | 0.00 | 0.00 | 0.00 | 88 | 1019.1 |
| 20260902021543 | 15 | 264 | 0.0 | 1.6 | 0.00 | 0.00 | 0.00 | 88 | 1019.1 |
| 20260902021043 | 15 | 282 | 0.0 | 4.8 | 0.00 | 0.00 | 0.00 | 88 | 1019.0 |
| 20260902020543 | 15 | 202 | 0.0 | 3.2 | 0.00 | 0.00 | 0.00 | 88 | 1019.1 |
| 20260902020043 | 15 | 234 | 3.2 | 4.8 | 0.00 | 0.00 | 0.00 | 88 | 1019.1 |
| 20260902015543 | 15 | 289 | 3.2 | 4.8 | 0.00 | 0.00 | 0.00 | 88 | 1019.0 |
| 20260902015043 | 15 | 226 | 0.0 | 1.6 | 0.00 | 0.00 | 0.00 | 88 | 1018.9 |
| 20260902014543 | 15 | 241 | 0.0 | 0.0 | 0.00 | 0.00 | 0.00 | 88 | 1019.2 |
| 20260902014043 | 15 | 270 | 0.0 | 1.6 | 0.00 | 0.00 | 0.00 | 88 | 1019.1 |
| 20260902013543 | 15 | 236 | 0.0 | 0.0 | 0.00 | 0.00 | 0.00 | 88 | 1019.1 |
| 20260902013043 | 15 | 282 | 0.0 | 3.2 | 0.00 | 0.00 | 0.00 | 88 | 1019.1 |
| 20260902012543 | 15 | 283 | 1.6 | 3.2 | 0.00 | 0.00 | 0.00 | 88 | 1019.1 |
| 20260902012043 | 15 | 284 | 4.8 | 9.7 | 0.00 | 0.00 | 0.00 | 88 | 1019.3 |
| 20260902011543 | 15 | 289 | 3.2 | 6.4 | 0.00 | 0.00 | 0.00 | 88 | 1019.1 |
| 20260902011043 | 15 | 260 | 0.0 | 0.0 | 0.00 | 0.00 | 0.00 | 88 | 1019.3 |
| 20260902010543 | 15 | 258 | 3.2 | 3.2 | 0.00 | 0.00 | 0.00 | 88 | 1019.2 |
| 20260902010043 | 15 | 278 | 3.2 | 4.8 | 0.00 | 0.00 | 0.00 | 88 | 1019.3 |
| 20260902005543 | 15 | 274 | 0.0 | 1.6 | 0.00 | 0.00 | 0.00 | 87 | 1019.2 |
| 20260902005043 | 15 | 274 | 0.0 | 3.2 | 0.00 | 0.00 | 0.00 | 87 | 1019.3 |
| 20260902004543 | 15 | 267 | 1.6 | 4.8 | 0.00 | 0.00 | 0.00 | 87 | 1019.1 |
| 20260902004043 | 15 | 259 | 0.0 | 0.0 | 0.00 | 0.00 | 0.00 | 87 | 1019.2 |
| 20260902003543 | 15 | 266 | 0.0 | 0.0 | 0.00 | 0.00 | 0.00 | 87 | 1019.1 |
| 20260902003043 | 15 | 264 | 0.0 | 0.0 | 0.00 | 0.00 | 0.00 | 87 | 1019.0 |
| 20260902002543 | 15 | 267 | 0.0 | 0.0 | 0.00 | 0.00 | 0.00 | 87 | 1019.0 |
| 20260902002043 | 15 | 268 | 0.0 | 0.0 | 0.00 | 0.00 | 0.00 | 87 | 1019.1 |
| 20260902001543 | 15 | 265 | 0.0 | 0.0 | 0.00 | 0.00 | 0.00 | 87 | 1019.0 |
| 20260902001043 | 15 | 259 | 0.0 | 0.0 | 0.00 | 0.00 | 0.00 | 86 | 1019.0 |
| 20260902000543 | 15 | 259 | 0.0 | 0.0 | 0.00 | 0.00 | 0.00 | 86 | 1019.0 |
| 20260902000043 | 15 | 259 | 0.0 | 0.0 | 0.00 | 0.00 | 0.00 | 86 | 1019.2 |
| 20260901235543 | 15 | 252 | 0.0 | 3.2 | 0.00 | 0.00 | 0.00 | 85 | 1019.1 |
| 20260901235043 | 15 | 28 | 0.0 | 0.0 | 0.00 | 0.00 | 0.00 | 85 | 1019.0 |
| 20260901234543 | 16 | 163 | 0.0 | 1.6 | 0.00 | 0.00 | 0.00 | 85 | 1018.9 |
| 20260901234043 | 16 | 343 | 0.0 | 3.2 | 0.00 | 0.00 | 0.00 | 84 | 1019.1 |
| 20260901233543 | 16 | 325 | 0.0 | 0.0 | 0.00 | 0.00 | 0.00 | 84 | 1018.9 |
| 20260901233043 | 16 | 195 | 0.0 | 0.0 | 0.00 | 0.00 | 0.00 | 84 | 1018.8 |
| 20260901232543 | 16 | 249 | 0.0 | 1.6 | 0.00 | 0.00 | 0.00 | 84 | 1018.7 |
| 20260901232043 | 16 | 222 | 0.0 | 3.2 | 0.00 | 0.00 | 0.00 | 84 | 1019.0 |
| 20260901231543 | 16 | 271 | 0.0 | 0.0 | 0.00 | 0.00 | 0.00 | 84 | 1018.7 |
| 20260901231043 | 16 | 260 | 0.0 | 4.8 | 0.00 | 0.00 | 0.00 | 84 | 1018.7 |
| 20260901230543 | 16 | 261 | 0.0 | 1.6 | 0.00 | 0.00 | 0.00 | 83 | 1018.8 |
| 20260901230042 | 16 | 272 | 0.0 | 3.2 | 0.00 | 0.00 | 0.00 | 83 | 1018.7 |
| 20260901225543 | 16 | 226 | 0.0 | 1.6 | 0.00 | 0.00 | 0.00 | 83 | 1018.8 |
| 20260901225043 | 16 | 253 | 1.6 | 1.6 | 0.00 | 0.00 | 0.00 | 83 | 1018.9 |
| 20260901224543 | 16 | 281 | 4.8 | 6.4 | 0.00 | 0.00 | 0.00 | 83 | 1019.0 |
| 20260901224043 | 16 | 268 | 1.6 | 9.7 | 0.00 | 0.00 | 0.00 | 83 | 1018.8 |
| 20260901223543 | 16 | 284 | 3.2 | 6.4 | 0.00 | 0.00 | 0.00 | 83 | 1019.0 |
| 20260901223043 | 16 | 294 | 3.2 | 6.4 | 0.00 | 0.00 | 0.00 | 83 | 1018.9 |
| 20260901222543 | 16 | 289 | 3.2 | 6.4 | 0.00 | 0.00 | 0.00 | 83 | 1018.9 |
| 20260901222043 | 16 | 278 | 6.4 | 11.3 | 0.00 | 0.00 | 0.00 | 83 | 1018.9 |
| 20260901221543 | 16 | 243 | 9.7 | 11.3 | 0.00 | 0.00 | 0.00 | 83 | 1019.0 |
| 20260901221043 | 16 | 281 | 3.2 | 11.3 | 0.00 | 0.00 | 0.00 | 82 | 1018.9 |
| 20260901220543 | 16 | 284 | 6.4 | 11.3 | 0.00 | 0.00 | 0.00 | 82 | 1018.9 |
| 20260901220043 | 16 | 273 | 4.8 | 6.4 | 0.00 | 0.00 | 0.00 | 82 | 1018.9 |
| 20260901215543 | 16 | 281 | 3.2 | 4.8 | 0.00 | 0.00 | 0.00 | 82 | 1019.0 |
| 20260901214536 | 16 | 262 | 8.0 | 9.7 | 0.00 | 0.00 | 0.00 | 82 | 1019.0 |
| 20260901214036 | 16 | 254 | 3.2 | 4.8 | 0.00 | 0.00 | 0.00 | 82 | 1018.8 |
| 20260901213536 | 16 | 255 | 4.8 | 6.4 | 0.00 | 0.00 | 0.00 | 82 | 1018.8 |
| 20260901213036 | 16 | 270 | 4.8 | 9.7 | 0.00 | 0.00 | 0.00 | 82 | 1019.0 |
| 20260901212536 | 16 | 284 | 3.2 | 6.4 | 0.00 | 0.00 | 0.00 | 82 | 1019.0 |
| 20260901212036 | 16 | 219 | 1.6 | 9.7 | 0.00 | 0.00 | 0.00 | 82 | 1019.0 |
| 20260901211536 | 16 | 269 | 0.0 | 4.8 | 0.00 | 0.00 | 0.00 | 83 | 1018.8 |
| 20260901211036 | 16 | 283 | 3.2 | 4.8 | 0.00 | 0.00 | 0.00 | 83 | 1019.0 |
| 20260901210536 | 16 | 287 | 4.8 | 9.7 | 0.00 | 0.00 | 0.00 | 83 | 1019.1 |